KI0MQ Weather Reports


time (UTC)temp
F
wind
direction
speed
knots
gust
knots
rain 1hr
in
rain 24hr
in
rain mn
in
humidity
%
barometer
mb
20260508152003 64 182 1.7 3.5 0.00 0.00 0.00 53 1008.7
20260508151508 64 187 0.9 3.5 0.00 0.00 0.00 51 1008.8
20260508151003 64 191 0.9 3.5 0.00 0.00 0.00 56 1008.8
20260508150008 63 184 1.7 3.5 0.00 0.00 0.00 57 1008.9
20260508145505 63 189 1.7 4.3 0.00 0.00 0.00 55 1008.7
20260508145003 62 192 1.7 4.3 0.00 0.00 0.00 57 1008.6
20260508144508 62 192 0.9 2.6 0.00 0.00 0.00 59 1008.7
20260508144005 61 190 0.9 2.6 0.00 0.00 0.00 56 1008.8
20260508143503 61 198 0.9 2.6 0.00 0.00 0.00 57 1008.9
20260508143008 61 207 0.9 2.6 0.00 0.00 0.00 58 1009.0
20260508142504 60 196 0.9 2.6 0.00 0.00 0.00 58 1009.0
20260508142004 60 187 1.7 2.6 0.00 0.00 0.00 59 1009.1
20260508141508 59 183 0.9 2.6 0.00 0.00 0.00 59 1009.1
20260508141003 58 346 0.0 1.7 0.00 0.00 0.00 61 1009.1
20260508140504 58 0 0.0 0.0 0.00 0.00 0.00 66 1009.0
20260508140008 57 0 0.0 0.0 0.00 0.00 0.00 68 1009.1
20260508135503 56 0 0.0 0.0 0.00 0.00 0.00 71 1009.0
20260508135003 55 0 0.0 0.0 0.00 0.00 0.00 72 1009.1
20260508134508 54 0 0.0 0.0 0.00 0.00 0.00 74 1009.1
20260508134003 54 0 0.0 0.0 0.00 0.00 0.00 73 1009.1
20260508133505 54 0 0.0 0.0 0.00 0.00 0.00 75 1009.1
20260508133008 53 0 0.0 0.0 0.00 0.00 0.00 75 1009.2
20260508132503 53 0 0.0 0.0 0.00 0.00 0.00 75 1009.2
20260508132003 53 0 0.0 0.0 0.00 0.00 0.00 74 1009.1
20260508131508 53 0 0.0 0.0 0.00 0.00 0.00 73 1009.2
20260508131004 53 0 0.0 0.0 0.00 0.00 0.00 72 1009.0
20260508130504 53 0 0.0 0.0 0.00 0.00 0.00 72 1008.9
20260508130008 52 0 0.0 0.0 0.00 0.00 0.00 73 1008.8
20260508125503 52 0 0.0 0.0 0.00 0.00 0.00 72 1008.8
20260508125004 52 0 0.0 0.0 0.00 0.00 0.00 72 1008.7
20260508124509 52 0 0.0 0.0 0.00 0.00 0.00 71 1008.5
20260508124004 52 0 0.0 0.0 0.00 0.00 0.00 71 1008.5
20260508123503 52 0 0.0 0.0 0.00 0.00 0.00 70 1008.5
20260508123008 52 0 0.0 0.0 0.00 0.00 0.00 70 1008.5
20260508122503 52 0 0.0 0.0 0.00 0.00 0.00 69 1008.6
20260508122004 52 0 0.0 0.0 0.00 0.00 0.00 69 1008.6
20260508121508 52 0 0.0 0.0 0.00 0.00 0.00 68 1008.6
20260508121003 52 0 0.0 0.0 0.00 0.00 0.00 68 1008.7
20260508120008 52 0 0.0 0.0 0.00 0.00 0.00 66 1008.6
20260508115503 52 0 0.0 0.0 0.00 0.00 0.00 66 1008.6
20260508115005 52 334 0.0 1.7 0.00 0.00 0.00 67 1008.7
20260508114509 52 352 0.0 1.7 0.00 0.00 0.00 66 1008.7
20260508114003 51 17 0.0 1.7 0.00 0.00 0.00 66 1008.8
20260508113008 50 0 0.0 0.0 0.00 0.00 0.00 71 1008.9
20260508112505 50 0 0.0 0.0 0.00 0.00 0.00 71 1008.7
20260508112003 50 0 0.0 0.0 0.00 0.00 0.00 69 1008.5
20260508111003 50 0 0.0 0.0 0.00 0.00 0.00 69 1008.6
20260508110504 50 0 0.0 0.0 0.00 0.00 0.00 69 1008.7
20260508110008 50 0 0.0 0.0 0.00 0.00 0.00 69 1008.7
20260508105503 50 0 0.0 0.0 0.00 0.00 0.00 68 1008.6
20260508103503 51 0 0.0 0.0 0.00 0.00 0.00 65 1008.8
20260508103008 51 0 0.0 0.0 0.00 0.00 0.00 66 1008.7
20260508102503 51 37 0.0 0.9 0.00 0.00 0.00 66 1008.8
20260508102004 51 37 0.0 1.7 0.00 0.00 0.00 65 1008.6
20260508101508 51 37 0.0 1.7 0.00 0.00 0.00 64 1008.7
20260508101004 51 0 0.0 0.0 0.00 0.00 0.00 65 1009.1
20260508100504 51 0 0.0 0.0 0.00 0.00 0.00 65 1009.2
20260508100008 51 37 0.0 0.9 0.00 0.00 0.00 64 1009.3
20260508095505 51 37 0.0 0.9 0.00 0.00 0.00 66 1009.3
20260508095004 51 36 0.0 0.9 0.00 0.00 0.00 66 1009.1
20260508094508 51 36 0.0 0.9 0.00 0.00 0.00 67 1009.1
20260508094003 51 36 0.0 0.9 0.00 0.00 0.00 65 1009.0
20260508093504 51 36 0.0 0.9 0.00 0.00 0.00 65 1009.1
20260508093008 52 0 0.0 0.0 0.00 0.00 0.00 65 1009.1
20260508092504 52 0 0.0 0.0 0.00 0.00 0.00 63 1009.1
20260508092003 52 0 0.0 0.0 0.00 0.00 0.00 61 1009.1
20260508091508 53 36 0.0 0.9 0.00 0.00 0.00 61 1009.1
20260508091003 53 36 0.0 0.9 0.00 0.00 0.00 61 1009.2
20260508090503 54 37 0.0 0.9 0.00 0.00 0.00 61 1009.2
20260508090008 54 37 0.0 0.9 0.00 0.00 0.00 60 1009.0
20260508085504 54 0 0.0 0.0 0.00 0.00 0.00 60 1009.2
20260508085004 54 37 0.0 0.9 0.00 0.00 0.00 60 1009.3
20260508084508 54 37 0.0 0.9 0.00 0.00 0.00 61 1009.1
20260508084003 55 37 0.0 0.9 0.00 0.00 0.00 60 1009.0
20260508082503 55 0 0.0 0.0 0.00 0.00 0.00 58 1009.3
20260508082004 55 0 0.0 0.0 0.00 0.00 0.00 55 1009.3
20260508081507 55 37 0.0 0.9 0.00 0.00 0.00 59 1009.0
20260508080504 55 37 0.0 0.9 0.00 0.00 0.00 61 1009.0
20260508080009 55 37 0.0 0.9 0.00 0.00 0.00 61 1009.4
20260508075503 55 37 0.0 0.9 0.00 0.00 0.00 59 1009.4
20260508074508 55 37 0.0 0.9 0.00 0.00 0.00 60 1009.4
20260508074003 55 0 0.0 0.0 0.00 0.00 0.00 59 1009.6
20260508073008 55 36 0.0 0.9 0.00 0.00 0.00 60 1009.4
20260508072504 55 36 0.0 0.9 0.00 0.00 0.00 60 1009.4
20260508072004 55 36 0.0 0.9 0.00 0.00 0.00 60 1009.3
20260508071508 55 31 0.0 0.9 0.00 0.00 0.00 56 1009.0
20260508071003 54 25 0.0 0.9 0.00 0.00 0.00 58 1008.8
20260508070503 54 0 0.0 0.0 0.00 0.00 0.00 61 1009.1
20260508070009 54 0 0.0 0.0 0.00 0.00 0.00 63 1009.1
20260508065503 55 25 0.0 0.9 0.00 0.00 0.00 61 1009.4
20260508065003 54 25 0.0 0.9 0.00 0.00 0.00 61 1009.4
20260508064004 54 0 0.0 0.0 0.00 0.00 0.00 66 1009.5
20260508063503 53 0 0.0 0.0 0.00 0.00 0.00 64 1009.5
20260508063008 53 0 0.0 0.0 0.00 0.00 0.00 66 1009.6
20260508062504 53 0 0.0 0.0 0.00 0.00 0.00 65 1009.5
20260508062003 53 0 0.0 0.0 0.00 0.00 0.00 67 1009.6
20260508061508 53 0 0.0 0.0 0.00 0.00 0.00 67 1009.7
20260508061003 53 0 0.0 0.0 0.00 0.00 0.00 67 1009.5
20260508060504 53 0 0.0 0.0 0.00 0.00 0.00 67 1009.4
20260508060009 53 0 0.0 0.0 0.00 0.00 0.00 66 1009.3
20260508055503 53 0 0.0 0.0 0.00 0.00 0.00 67 1009.3
20260508054508 52 0 0.0 0.0 0.00 0.00 0.00 68 1009.2
20260508054004 52 0 0.0 0.0 0.00 0.00 0.00 67 1009.2
20260508053503 52 0 0.0 0.0 0.00 0.00 0.00 68 1009.1
20260508052503 52 0 0.0 0.0 0.00 0.00 0.00 67 1009.1
20260508052004 52 0 0.0 0.0 0.00 0.00 0.00 66 1009.1
20260508050504 52 0 0.0 0.0 0.00 0.00 0.00 66 1009.2
20260508050009 52 0 0.0 0.0 0.00 0.00 0.00 65 1009.3
20260508045504 52 0 0.0 0.0 0.00 0.00 0.00 64 1009.3
20260508045004 52 0 0.0 0.0 0.00 0.00 0.00 64 1009.4
20260508044508 52 0 0.0 0.0 0.00 0.00 0.00 64 1009.4
20260508044003 51 0 0.0 0.0 0.00 0.00 0.00 64 1009.5
20260508043008 52 0 0.0 0.0 0.00 0.00 0.00 63 1009.5
20260508042503 52 0 0.0 0.0 0.00 0.00 0.00 63 1009.4
20260508042004 52 0 0.0 0.0 0.00 0.00 0.00 62 1009.3
20260508041508 52 0 0.0 0.0 0.00 0.00 0.00 60 1009.3
20260508041003 52 0 0.0 0.0 0.00 0.00 0.00 60 1009.4
20260508040503 52 0 0.0 0.0 0.00 0.00 0.00 60 1009.5
20260508040008 52 0 0.0 0.0 0.00 0.00 0.00 60 1009.5
20260508035503 52 0 0.0 0.0 0.00 0.00 0.00 60 1009.5
20260508035004 52 0 0.0 0.0 0.00 0.00 0.00 60 1009.4
20260508034507 52 0 0.0 0.0 0.00 0.00 0.00 61 1009.3
20260508033504 53 0 0.0 0.0 0.00 0.00 0.00 56 1009.4
20260508033007 54 0 0.0 0.0 0.00 0.00 0.00 55 1009.3
20260508032504 54 0 0.0 0.0 0.00 0.00 0.00 55 1009.4
20260508032003 54 0 0.0 0.0 0.00 0.00 0.00 55 1009.4
20260508031005 55 0 0.0 0.0 0.00 0.00 0.00 54 1009.4
20260508030503 55 0 0.0 0.0 0.00 0.00 0.00 53 1009.4
20260508030008 56 0 0.0 0.0 0.00 0.00 0.00 53 1009.3
20260508025503 56 0 0.0 0.0 0.00 0.00 0.00 52 1009.3
20260508025003 56 0 0.0 0.0 0.00 0.00 0.00 50 1009.2
20260508024508 57 0 0.0 0.0 0.00 0.00 0.00 50 1009.2
20260508024003 57 0 0.0 0.0 0.00 0.00 0.00 49 1009.2
20260508023503 57 0 0.0 0.0 0.00 0.00 0.00 48 1009.0
20260508022003 59 0 0.0 0.0 0.00 0.00 0.00 46 1009.0
20260508021508 59 0 0.0 0.0 0.00 0.00 0.00 45 1008.9
20260508021003 60 0 0.0 0.0 0.00 0.00 0.00 45 1008.8
20260508020503 60 0 0.0 0.0 0.00 0.00 0.00 44 1008.7
20260508020008 61 0 0.0 0.0 0.00 0.00 0.00 44 1008.6
20260508015503 61 0 0.0 0.0 0.00 0.00 0.00 42 1008.6
20260508015004 62 0 0.0 0.0 0.00 0.00 0.00 40 1008.6
20260508014507 63 0 0.0 0.0 0.00 0.00 0.00 39 1008.6
20260508014004 64 0 0.0 0.0 0.00 0.00 0.00 37 1008.6
20260508013504 65 25 0.0 0.9 0.00 0.00 0.00 37 1008.6
20260508013007 65 25 0.0 0.9 0.00 0.00 0.00 35 1008.6
20260508012504 66 0 0.0 0.0 0.00 0.00 0.00 36 1008.5
20260508012003 66 25 0.0 0.9 0.00 0.00 0.00 34 1008.4
20260508011508 67 26 0.0 0.9 0.00 0.00 0.00 33 1008.4
20260508011003 68 25 0.0 1.7 0.00 0.00 0.00 33 1008.3
20260508010503 68 30 0.0 2.6 0.00 0.00 0.00 32 1008.3
20260508010008 69 4 0.9 2.6 0.00 0.00 0.00 31 1008.2
20260508005503 69 352 0.9 2.6 0.00 0.00 0.00 30 1008.1
20260508005004 70 354 0.9 2.6 0.00 0.00 0.00 30 1008.1
20260508003504 71 8 1.7 5.2 0.00 0.00 0.00 29 1007.9
20260508003008 71 1 1.7 5.2 0.00 0.00 0.00 29 1007.9
20260508002503 71 345 1.7 4.3 0.00 0.00 0.00 28 1007.9
20260508002003 72 352 1.7 5.2 0.00 0.00 0.00 29 1007.9
20260508001508 72 358 1.7 5.2 0.00 0.00 0.00 29 1007.9
20260508001003 72 349 1.7 4.3 0.00 0.00 0.00 29 1007.8
20260508000504 72 343 1.7 5.2 0.00 0.00 0.00 28 1007.8
20260507235504 72 320 0.9 5.2 0.00 0.00 0.00 30 1007.8
20260507235003 72 359 1.7 5.2 0.00 0.00 0.00 30 1007.7
20260507234508 72 353 1.7 6.1 0.00 0.00 0.00 31 1007.8
20260507234004 71 323 2.6 7.0 0.00 0.00 0.00 30 1007.8
20260507233503 72 330 2.6 7.0 0.00 0.00 0.00 29 1007.8
20260507233008 72 346 1.7 7.0 0.00 0.00 0.00 28 1007.8
20260507232503 72 311 1.7 7.0 0.00 0.00 0.00 27 1007.8
20260507231508 72 334 2.6 7.8 0.00 0.00 0.00 29 1007.8
20260507231005 72 324 1.7 7.8 0.00 0.00 0.00 29 1007.8
20260507230503 72 347 0.9 4.3 0.00 0.00 0.00 31 1007.8
20260507225504 72 297 0.9 6.1 0.00 0.00 0.00 29 1007.7
20260507225003 72 314 1.7 6.1 0.00 0.00 0.00 28 1007.7
20260507224004 72 323 1.7 9.6 0.00 0.00 0.00 28 1007.6
20260507223008 72 329 2.6 8.7 0.00 0.00 0.00 31 1007.7
20260507222504 72 320 2.6 8.7 0.00 0.00 0.00 29 1007.9
20260507222004 72 307 1.7 3.5 0.00 0.00 0.00 29 1007.8
20260507221507 72 311 0.9 3.5 0.00 0.00 0.00 31 1007.7
20260507221003 71 321 0.9 6.1 0.00 0.00 0.00 31 1007.8
20260507220008 71 314 1.7 7.8 0.00 0.00 0.00 30 1007.9
20260507215503 72 330 0.9 7.0 0.00 0.00 0.00 31 1007.9
20260507215004 71 306 0.9 6.1 0.00 0.00 0.00 33 1007.8
20260507214507 71 305 1.7 6.1 0.00 0.00 0.00 31 1007.9
20260507214003 72 316 0.9 5.2 0.00 0.00 0.00 31 1007.9
20260507213504 71 332 1.7 7.8 0.00 0.00 0.00 32 1007.9
20260507213007 71 344 1.7 7.8 0.00 0.00 0.00 30 1008.0
20260507212504 72 324 1.7 8.7 0.00 0.00 0.00 31 1008.0
20260507212003 71 303 2.6 8.7 0.00 0.00 0.00 31 1008.1
20260507211508 71 312 2.6 7.8 0.00 0.00 0.00 32 1008.1
20260507211005 71 322 2.6 8.7 0.00 0.00 0.00 30 1008.0
20260507210503 72 333 2.6 8.7 0.00 0.00 0.00 30 1008.1
20260507210008 72 318 1.7 5.2 0.00 0.00 0.00 30 1008.2
20260507205504 72 305 1.7 5.2 0.00 0.00 0.00 31 1008.1
20260507204507 72 235 1.7 4.3 0.00 0.00 0.00 34 1008.2
20260507204004 72 271 1.7 7.0 0.00 0.00 0.00 32 1008.3
20260507203504 72 308 2.6 7.8 0.00 0.00 0.00 32 1008.4
20260507203008 72 328 3.5 8.7 0.00 0.00 0.00 29 1008.4
20260507202504 72 341 2.6 8.7 0.00 0.00 0.00 29 1008.5
20260507202004 73 327 2.6 7.0 0.00 0.00 0.00 29 1008.5
20260507200503 73 270 1.7 11.3 0.00 0.00 0.00 29 1008.5
20260507200008 73 273 1.7 9.6 0.00 0.00 0.00 27 1008.6
20260507195003 73 331 1.7 6.1 0.00 0.00 0.00 31 1008.4
20260507194508 74 316 1.7 8.7 0.00 0.00 0.00 31 1008.5
20260507193503 74 247 0.9 6.1 0.00 0.00 0.00 35 1008.4
20260507193008 74 266 1.7 6.1 0.00 0.00 0.00 35 1008.5
20260507191508 73 290 1.7 7.0 0.00 0.00 0.00 37 1008.6
20260507185503 74 261 0.9 4.3 0.00 0.00 0.00 37 1008.4
20260507185004 73 268 1.7 6.1 0.00 0.00 0.00 39 1008.6
20260507183504 72 223 1.7 5.2 0.00 0.00 0.00 38 1008.7
20260507183008 71 246 1.7 5.2 0.00 0.00 0.00 40 1008.8
20260507182503 71 260 1.7 5.2 0.00 0.00 0.00 39 1008.9
20260507182003 70 254 1.7 5.2 0.00 0.00 0.00 40 1008.9
20260507181508 70 258 1.7 5.2 0.00 0.00 0.00 40 1009.1
20260507180503 70 236 1.7 6.1 0.00 0.00 0.00 38 1009.1
20260507180008 70 251 1.7 7.0 0.00 0.00 0.00 39 1009.1
20260507175503 71 241 1.7 7.0 0.00 0.00 0.00 42 1009.1
20260507175004 70 253 1.7 6.1 0.00 0.00 0.00 43 1009.2
20260507174508 69 257 1.7 5.2 0.00 0.00 0.00 42 1009.3
20260507174003 69 237 1.7 4.3 0.00 0.00 0.00 39 1009.4
20260507173504 69 258 1.7 5.2 0.00 0.00 0.00 40 1009.5
20260507173007 69 258 1.7 5.2 0.00 0.00 0.00 40 1009.6
20260507172504 69 245 1.7 5.2 0.00 0.00 0.00 41 1009.5
20260507172003 68 241 1.7 4.3 0.00 0.00 0.00 40 1009.7
20260507171508 68 233 0.9 3.5 0.00 0.00 0.00 42 1009.7
20260507170504 67 246 0.9 4.3 0.00 0.00 0.00 41 1009.8
20260507165503 66 244 0.9 3.5 0.00 0.00 0.00 43 1010.0
20260507164003 66 231 1.7 3.5 0.00 0.00 0.00 45 1010.2
20260507163503 66 213 1.7 4.3 0.00 0.00 0.00 52 1010.2
20260507163007 64 213 1.7 5.2 0.00 0.00 0.00 48 1010.2
20260507162503 64 203 2.6 6.1 0.00 0.00 0.00 47 1010.2
20260507162003 64 194 2.6 7.0 0.00 0.00 0.00 50 1010.3
20260507161509 63 205 1.7 7.0 0.00 0.00 0.00 51 1010.3
20260507161004 63 223 1.7 3.5 0.00 0.00 0.00 51 1010.4
20260507160008 62 203 1.7 7.0 0.00 0.00 0.00 53 1010.5
20260507155504 62 216 1.7 4.3 0.00 0.00 0.00 53 1010.6
20260507155004 61 236 1.7 4.3 0.00 0.00 0.00 55 1010.6
20260507154507 61 230 1.7 4.3 0.00 0.00 0.00 54 1010.7
20260507153504 60 225 1.7 5.2 0.00 0.00 0.00 56 1010.8
20260507152503 59 213 1.7 5.2 0.00 0.00 0.00 60 1010.8